569  
ASUS44 KMOB 100512  
RWRMOB  
REGIONAL WEATHER ROUNDUP  
NATIONAL WEATHER SERVICE MOBILE AL  
1200 AM CDT WED AUG 10 2022  
 
NOTE: "FAIR" INDICATES FEW OR NO CLOUDS BELOW 12,000 FEET WITH NO  
SIGNIFICANT WEATHER AND/OR S TO VISIBILITY
.  
 
* THESE STATIONS ARE PART OF THE UNIVERSITY OF SOUTH ALABAMA  
MESONET AND ARE NOT UNDER NWS OR FAA QUALITY CONTROL.
 
 
ALZ061>064-100600-  
COASTAL ALABAMA  
 
CITY SKY/WX TMP DP RH WIND PRES REMARKS
 
MOBILE REG APT PTCLDY 78 73 84 E3 30.11R  
BROOKLEY FIELD PTCLDY 80 75 84 SE8 30.11S  
USA CAMPUS* NOT AVBL  
DOG RIVER* NOT AVBL  
 
 
CITY SKY/WX TMP DP RH WIND PRES REMARKS
 
GULF SHORES MOCLDY 73 73 100 CALM 30.10S  
 

 
 
ALZ051>060-100600-  
INTERIOR SOUTHWEST AND SOUTH CENTRAL ALABAMA  
 
CITY SKY/WX TMP DP RH WIND PRES REMARKS
 
GREENVILLE MOCLDY 71 71 100 CALM 30.11S  
EVERGREEN FOG 72 70 93 S3 30.13R VSB 1  
ATMORE* NOT AVBL  
ANDALUSIA/OPP NOT AVBL  
ANDALUSIA* NOT AVBL  
FLORALA APT PTCLDY 75 71 87 S3 30.15R  
FLORALA* NOT AVBL  
 

 
 
FLZ001>006-100600-  
WESTERN FLORIDA PANHANDLE  
 
CITY SKY/WX TMP DP RH WIND PRES REMARKS
 
PENSACOLA PTCLDY 77 76 96 NE3 30.10S  
NAS PENSACOLA NOT AVBL  
MILTON NOT AVBL  
WHTNG S FIELD PTCLDY 73 72 96 CALM 30.11F  
 
 
CITY SKY/WX TMP DP RH WIND PRES REMARKS
 
JAY* NOT AVBL  
DUKE FIELD PTCLDY 73 71 92 CALM 30.12S  
CRESTVIEW PTCLDY 73 72 96 CALM 30.14R  
VALPARAISO CLOUDY 80 71 74 E5 30.09F  
DESTIN NOT AVBL  
 

 
 
MSZ076-079-100600-  
INTERIOR SOUTHEAST MISSISSIPPI  
 
CITY SKY/WX TMP DP RH WIND PRES REMARKS
 
LEAKESVILLE* NOT AVBL  
AGRICOLA* NOT AVBL  
 

 
 
MARINE OBSERVATIONS  
 
STATION/POSITION TIME TEMP WIND PRES WAVE
 
AIR SEA DIR/SP/G HT/PER  
(UTC) (F) (DEG/KT/KT) (MB) (FT/S)  
PETIT BOIS ISLND 0430 160/ 9/ 11 1019.5R  
E DAUPHIN ISLAND NOT AVBL  
USCG MOBILE BAY 0430 81 87 130/ 7/ 9 1019.2R  
STATE DOCKS 0430 80 87 1017.9R  
WEEKS BAY 0345 74 1020.0S  
FORT MORGAN 0430 82 150/ 9/ 12 1019.0F  
12 S ORANGE BCH 0440 82 85 130/ 10/ 12 1018.8F  
PENSACOLA BAY 0430 80 87 CALM / 1 1019.5F  
64 S DAUPHIN ISL 0440 82 85 130/ 6/ 8 1019.6R  
 

 
 
SELECTED LOCATIONS ACROSS THE REGION  
 
CITY SKY/WX TMP DP RH WIND PRES REMARKS
 
NEW ORLEANS MOCLDY 80 75 84 SE6 30.07S  
GULFPORT MOCLDY 78 75 90 CALM 30.07F  
PASCAGOULA AP PTCLDY 75 74 96 CALM 30.09S  
PASCAGOULA* NOT AVBL  
HATTIESBURG MOCLDY 74 73 97 SE3 30.10F  
LAUREL MOCLDY 75 74 96 SE3 30.10F  
MERIDIAN MOCLDY 74 74 100 CALM 30.10S  
JACKSON PTCLDY 76 74 93 SE7 30.07F  
MONTGOMERY PTCLDY 74 70 87 SE5 30.11F  
TROY MOCLDY 74 71 91 CALM 30.13R  
ASHFORD* NOT AVBL  
DOTHAN MOCLDY 74 74 100 SE7 30.17R  
PANAMA CITY PTCLDY 75 73 93 E3 30.12S  
 

 
 
 
 
CLICK HERE TO GO TO PREVIOUS BULLETINS.

The Nexlab AL Page
The Nexlab FL Page
The Nexlab MS Page Main Text Page